2014120100 , 00 , 14
2014120101 , 01 , 21
2014120102 , 02 , 22
2014120103 , 03 , 17
2014120104 , 04 , 21
2014120105 , 05 , 21
2014120106 , 06 , 28
2014120107 , 07 , 22
2014120108 , 08 , 12
2014120109 , 09 , 8
2014120110 , 10 , 11
2014120111 , 11 , 6
2014120112 , 12 , 1
2014120113 , 13 , 0
2014120114 , 14 , 11
2014120115 , 15 , 22
2014120116 , 16 , 17
2014120117 , 17 , 20
2014120118 , 18 , 17
2014120119 , 19 , 13
2014120120 , 20 , 17
2014120121 , 21 , 11
2014120122 , 22 , 18
2014120123 , 23 , 20
2014120200 , 00 , 13
2014120201 , 01 , 12
2014120202 , 02 , 15
2014120203 , 03 , 20
2014120204 , 04 , 19
2014120205 , 05 , 24
2014120206 , 06 , 27
2014120207 , 07 , 12
2014120208 , 08 , 20
2014120209 , 09 , 17
2014120210 , 10 , 26
2014120211 , 11 , 22
2014120212 , 12 , 16
2014120213 , 13 , 17
2014120214 , 14 , 7
2014120215 , 15 , 16
2014120216 , 16 , 9
2014120217 , 17 , 16
2014120218 , 18 , 17
2014120219 , 19 , 9
2014120220 , 20 , 23
2014120221 , 21 , 12
2014120222 , 22 , 15
2014120223 , 23 , 9
2014120300 , 00 , 19
2014120301 , 01 , 14
2014120302 , 02 , 17
2014120303 , 03 , 16
2014120304 , 04 , 12
2014120305 , 05 , 24
2014120306 , 06 , 16
2014120307 , 07 , 22
2014120308 , 08 , 11
2014120309 , 09 , 19
2014120310 , 10 , 19
2014120311 , 11 , 14
2014120312 , 12 , 24
2014120313 , 13 , 16
2014120314 , 14 , 19
2014120315 , 15 , 16
2014120316 , 16 , 35
2014120317 , 17 , 11
2014120318 , 18 , 20
2014120319 , 19 , 12
2014120320 , 20 , 19
2014120321 , 21 , 17
2014120322 , 22 , 14
2014120323 , 23 , 18
2014120400 , 00 , 17
2014120401 , 01 , 17
2014120402 , 02 , 22
2014120403 , 03 , 15
2014120404 , 04 , 23
2014120405 , 05 , 21
2014120406 , 06 , 54
2014120407 , 07 , 49
2014120408 , 08 , 28
2014120409 , 09 , 17
2014120410 , 10 , 18
2014120411 , 11 , 18
2014120412 , 12 , 17
2014120413 , 13 , 36
2014120414 , 14 , 18
2014120415 , 15 , 14
2014120416 , 16 , 11
2014120417 , 17 , 12
2014120418 , 18 , 16
2014120419 , 19 , 19
2014120420 , 20 , 19
2014120421 , 21 , 11
2014120422 , 22 , 25
2014120423 , 23 , 17
2014120500 , 00 , 13
2014120501 , 01 , 25
2014120502 , 02 , 12
2014120503 , 03 , 23
2014120504 , 04 , 19
2014120505 , 05 , 23
2014120506 , 06 , 28
2014120507 , 07 , 25
2014120508 , 08 , 21
2014120509 , 09 , 23
2014120510 , 10 , 26
2014120511 , 11 , 14
2014120512 , 12 , 16
2014120513 , 13 , 13
2014120514 , 14 , 23
2014120515 , 15 , 19
2014120516 , 16 , 16
2014120517 , 17 , 8
2014120518 , 18 , 14
2014120519 , 19 , 12
2014120520 , 20 , 19
2014120521 , 21 , 18
2014120522 , 22 , 12
2014120523 , 23 , 15
2014120600 , 00 , 12
2014120601 , 01 , 24
2014120602 , 02 , 12
2014120603 , 03 , 16
2014120604 , 04 , 21
2014120605 , 05 , 17
2014120606 , 06 , 22
2014120607 , 07 , 21
2014120608 , 08 , 17
2014120609 , 09 , 11
2014120610 , 10 , 14
2014120611 , 11 , 22
2014120612 , 12 , 32
2014120613 , 13 , 15
2014120614 , 14 , 17
2014120615 , 15 , 21
2014120616 , 16 , 14
2014120617 , 17 , 9
2014120618 , 18 , 20
2014120619 , 19 , 12
2014120620 , 20 , 14
2014120621 , 21 , 10
2014120622 , 22 , 23
2014120623 , 23 , 15
2014120700 , 00 , 13
2014120701 , 01 , 15
2014120702 , 02 , 16
2014120703 , 03 , 12
2014120704 , 04 , 18
2014120705 , 05 , 13
2014120706 , 06 , 15
2014120707 , 07 , 14
2014120708 , 08 , 16
2014120709 , 09 , 16
2014120710 , 10 , 20
2014120711 , 11 , 15
2014120712 , 12 , 12
2014120713 , 13 , 19
2014120714 , 14 , 17
2014120715 , 15 , 11
2014120716 , 16 , 11
2014120717 , 17 , 6
2014120718 , 18 , 10
2014120719 , 19 , 20
2014120720 , 20 , 13
2014120721 , 21 , 3
2014120722 , 22 , 4
2014120723 , 23 , 5
2014120800 , 00 , 1
2014120801 , 01 , 13
2014120802 , 02 , 12
2014120803 , 03 , 13
2014120804 , 04 , 18
2014120805 , 05 , 21
2014120806 , 06 , 15
2014120807 , 07 , 15
2014120808 , 08 , 19
2014120809 , 09 , 12
2014120810 , 10 , 15
2014120811 , 11 , 14
2014120812 , 12 , 14
2014120813 , 13 , 12
2014120814 , 14 , 7
2014120815 , 15 , 10
2014120816 , 16 , 10
2014120817 , 17 , 13
2014120818 , 18 , 18
2014120819 , 19 , 11
2014120820 , 20 , 17
2014120821 , 21 , 15
2014120822 , 22 , 23
2014120823 , 23 , 17
2014120900 , 00 , 22
2014120901 , 01 , 17
2014120902 , 02 , 16
2014120903 , 03 , 22
2014120904 , 04 , 19
2014120905 , 05 , 16
2014120906 , 06 , 22
2014120907 , 07 , 24
2014120908 , 08 , 10
2014120909 , 09 , 14
2014120910 , 10 , 12
2014120911 , 11 , 14
2014120912 , 12 , 13
2014120913 , 13 , 11
2014120914 , 14 , 12
2014120915 , 15 , 9
2014120916 , 16 , 11
2014120917 , 17 , 10
2014120918 , 18 , 26
2014120919 , 19 , 13
2014120920 , 20 , 15
2014120921 , 21 , 17
2014120922 , 22 , 17
2014120923 , 23 , 16
2014121000 , 00 , 15
2014121001 , 01 , 17
2014121002 , 02 , 15
2014121003 , 03 , 8
2014121004 , 04 , 14
2014121005 , 05 , 16
2014121006 , 06 , 33
2014121007 , 07 , 28
2014121008 , 08 , 20
2014121009 , 09 , 23
2014121010 , 10 , 15
2014121011 , 11 , 9
2014121012 , 12 , 12
2014121013 , 13 , 10
2014121014 , 14 , 14
2014121015 , 15 , 14
2014121016 , 16 , 7
2014121017 , 17 , 13
2014121018 , 18 , 11
2014121019 , 19 , 8
2014121020 , 20 , 7
2014121021 , 21 , 8
2014121022 , 22 , 3
2014121023 , 23 , 2
2014121100 , 00 , 6
2014121101 , 01 , 1
2014121102 , 02 , 13
2014121103 , 03 , 8
2014121104 , 04 , 4
2014121105 , 05 , 4
2014121106 , 06 , 1
2014121107 , 07 , 5
2014121108 , 08 , 0
2014121109 , 09 , 4
2014121110 , 10 , 4
2014121111 , 11 , 5
2014121112 , 12 , 1
2014121113 , 13 , 3
2014121114 , 14 , 2
2014121115 , 15 , 3
2014121116 , 16 , 2
2014121117 , 17 , 4
2014121118 , 18 , 5
2014121119 , 19 , 28
2014121120 , 20 , 22
2014121121 , 21 , 19
2014121122 , 22 , 33
2014121123 , 23 , 24
2014121200 , 00 , 16
2014121201 , 01 , 26
2014121202 , 02 , 20
2014121203 , 03 , 10
2014121204 , 04 , 11
2014121205 , 05 , 21
2014121206 , 06 , 41
2014121207 , 07 , 31
2014121208 , 08 , 26
2014121209 , 09 , 17
2014121210 , 10 , 14
2014121211 , 11 , 13
2014121212 , 12 , 12
2014121213 , 13 , 18
2014121214 , 14 , 30
2014121215 , 15 , 5
2014121216 , 16 , 12
2014121217 , 17 , 14
2014121218 , 18 , 40
2014121219 , 19 , 38
2014121220 , 20 , 33
2014121221 , 21 , 37
2014121222 , 22 , 21
2014121223 , 23 , 20
2014121300 , 00 , 20
2014121301 , 01 , 17
2014121302 , 02 , 24
2014121303 , 03 , 18
2014121304 , 04 , 19
2014121305 , 05 , 20
2014121306 , 06 , 49
2014121307 , 07 , 53
2014121308 , 08 , 58
2014121309 , 09 , 25
2014121310 , 10 , 15
2014121311 , 11 , 15
2014121312 , 12 , 9
2014121313 , 13 , 16
2014121314 , 14 , 11
2014121315 , 15 , 10
2014121316 , 16 , 15
2014121317 , 17 , 34
2014121318 , 18 , 46
2014121319 , 19 , 68
2014121320 , 20 , 77
2014121321 , 21 , 74
2014121322 , 22 , 56
2014121323 , 23 , 39
2014121400 , 00 , 56
2014121401 , 01 , 65
2014121402 , 02 , 66
2014121403 , 03 , 56
2014121404 , 04 , 61
2014121405 , 05 , 65
2014121406 , 06 , 86
2014121407 , 07 , 87
2014121408 , 08 , 61
2014121409 , 09 , 27
2014121410 , 10 , 15
2014121411 , 11 , 19
2014121412 , 12 , 11
2014121413 , 13 , 10
2014121414 , 14 , 18
2014121415 , 15 , 12
2014121416 , 16 , 21
2014121417 , 17 , 25
2014121418 , 18 , 39
2014121419 , 19 , 75
2014121420 , 20 , 80
2014121420 , 21 , 72
2014121422 , 22 , 50
2014121423 , 23 , 51
2014121500 , 00 , 38
2014121501 , 01 , 26
2014121502 , 02 , 29
2014121503 , 03 , 30
2014121504 , 04 , 23
2014121505 , 05 , 28
2014121506 , 06 , 46
2014121507 , 07 , 33
2014121508 , 08 , 23
2014121509 , 09 , 13
2014121510 , 10 , 14
2014121511 , 11 , 8
2014121512 , 12 , 25
2014121513 , 13 , 8
2014121514 , 14 , 18
2014121515 , 15 , 9
2014121516 , 16 , 10
2014121517 , 17 , 23
2014121518 , 18 , 17
2014121519 , 19 , 17
2014121520 , 20 , 18
2014121521 , 21 , 20
2014121522 , 22 , 14
2014121523 , 23 , 11
2014121600 , 00 , 10
2014121601 , 01 , 10
2014121602 , 02 , 20
2014121603 , 03 , 17
2014121604 , 04 , 18
2014121605 , 05 , 22
2014121606 , 06 , 16
2014121607 , 07 , 19
2014121608 , 08 , 21
2014121609 , 09 , 14
2014121610 , 10 , 11
2014121611 , 11 , 8
2014121612 , 12 , 12
2014121613 , 13 , 19
2014121614 , 14 , 12
2014121615 , 15 , 11
2014121616 , 16 , 6
2014121617 , 17 , 16
2014121618 , 18 , 17
2014121619 , 19 , 10
2014121620 , 20 , 8
2014121621 , 21 , 19
2014121622 , 22 , 7
2014121623 , 23 , 19
2014121700 , 00 , 8
2014121701 , 01 , 13
2014121702 , 02 , 12
2014121703 , 03 , 11
2014121704 , 04 , 15
2014121705 , 05 , 14
2014121706 , 06 , 17
2014121707 , 07 , 19
2014121708 , 08 , 21
2014121709 , 09 , 20
2014121710 , 10 , 17
2014121711 , 11 , 15
2014121712 , 12 , 16
2014121713 , 13 , 10
2014121714 , 14 , 15
2014121715 , 15 , 14
2014121716 , 16 , 12
2014121717 , 17 , 12
2014121718 , 18 , 14
2014121719 , 19 , 10
2014121720 , 20 , 16
2014121721 , 21 , 12
2014121722 , 22 , 12
2014121723 , 23 , 9
2014121800 , 00 , 11
2014121801 , 01 , 20
2014121802 , 02 , 12
2014121803 , 03 , 12
2014121804 , 04 , 12
2014121805 , 05 , 17
2014121806 , 06 , 16
2014121808 , 08 , 0
2014121809 , 09 , 0
2014121810 , 10 , 0
2014121821 , 21 , 7
2014121822 , 22 , 14
2014121823 , 23 , 15
2014121900 , 00 , 18
2014121901 , 01 , 7
2014121902 , 02 , 16
2014121903 , 03 , 14
2014121904 , 04 , 17
2014121905 , 05 , 20
2014121906 , 06 , 21
2014121907 , 07 , 14
2014121908 , 08 , 16
2014121909 , 09 , 19
2014121910 , 10 , 19
2014121911 , 11 , 15
2014121912 , 12 , 16
2014121913 , 13 , 14
2014121914 , 14 , 9
2014121915 , 15 , 12
2014121916 , 16 , 12
2014121917 , 17 , 13
2014121918 , 18 , 0
2014121919 , 19 , 10
2014121920 , 20 , 15
2014121921 , 21 , 19
2014121922 , 22 , 13
2014121923 , 23 , 11
2014122000 , 00 , 11
2014122001 , 01 , 14
2014122002 , 02 , 21
2014122003 , 03 , 9
2014122004 , 04 , 13
2014122005 , 05 , 14
2014122006 , 06 , 12
2014122007 , 07 , 16
2014122008 , 08 , 20
2014122009 , 09 , 14
2014122010 , 10 , 10
2014122011 , 11 , 15
2014122012 , 12 , 14
2014122013 , 13 , 7
2014122014 , 14 , 10
2014122015 , 15 , 10
2014122016 , 16 , 11
2014122017 , 17 , 13
2014122018 , 18 , 11
2014122019 , 19 , 9
2014122020 , 20 , 8
2014122021 , 21 , 14
2014122022 , 22 , 15
2014122023 , 23 , 14
2014122100 , 00 , 15
2014122101 , 01 , 12
2014122102 , 02 , 10
2014122103 , 03 , 10
2014122104 , 04 , 15
2014122105 , 05 , 10
2014122106 , 06 , 15
2014122107 , 07 , 10
2014122108 , 08 , 22
2014122109 , 09 , 9
2014122110 , 10 , 18
2014122111 , 11 , 13
2014122112 , 12 , 13
2014122113 , 13 , 13
2014122114 , 14 , 13
2014122115 , 15 , 7
2014122116 , 16 , 14
2014122117 , 17 , 8
2014122118 , 18 , 14
2014122119 , 19 , 6
2014122120 , 20 , 13
2014122121 , 21 , 8
2014122122 , 22 , 15
2014122123 , 23 , 20
2014122200 , 00 , 17
2014122201 , 01 , 12
2014122202 , 02 , 9
2014122203 , 03 , 13
2014122204 , 04 , 21
2014122205 , 05 , 18
2014122206 , 06 , 19
2014122207 , 07 , 12
2014122208 , 08 , 10
2014122209 , 09 , 19
2014122210 , 10 , 7
2014122211 , 11 , 8
2014122212 , 12 , 12
2014122213 , 13 , 14
2014122214 , 14 , 10
2014122215 , 15 , 12
2014122216 , 16 , 15
2014122217 , 17 , 12
2014122218 , 18 , 11
2014122219 , 19 , 12
2014122220 , 20 , 21
2014122221 , 21 , 16
2014122222 , 22 , 24
2014122223 , 23 , 34
2014122300 , 00 , 30
2014122301 , 01 , 17
2014122302 , 02 , 15
2014122303 , 03 , 16
2014122304 , 04 , 13
2014122305 , 05 , 16
2014122306 , 06 , 27
2014122307 , 07 , 17
2014122308 , 08 , 31
2014122309 , 09 , 22
2014122310 , 10 , 20
2014122311 , 11 , 13
2014122312 , 12 , 19
2014122313 , 13 , 11
2014122314 , 14 , 12
2014122315 , 15 , 13
2014122316 , 16 , 20
2014122317 , 17 , 21
2014122318 , 18 , 5
2014122319 , 19 , 8
2014122320 , 20 , 13
2014122321 , 21 , 12
2014122322 , 22 , 14
2014122323 , 23 , 13
2014122400 , 00 , 15
2014122401 , 01 , 13
2014122402 , 02 , 16
2014122403 , 03 , 16
2014122404 , 04 , 15
2014122405 , 05 , 14
2014122406 , 06 , 21
2014122407 , 07 , 20
2014122408 , 08 , 18
2014122409 , 09 , 13
2014122410 , 10 , 20
2014122411 , 11 , 19
2014122412 , 12 , 13
2014122413 , 13 , 19
2014122414 , 14 , 19
2014122415 , 15 , 9
2014122416 , 16 , 15
2014122417 , 17 , 5
2014122418 , 18 , 8
2014122419 , 19 , 9
2014122420 , 20 , 12
2014122421 , 21 , 10
2014122422 , 22 , 10
2014122423 , 23 , 10
2014122500 , 00 , 17
2014122501 , 01 , 16
2014122502 , 02 , 13
2014122503 , 03 , 18
2014122504 , 04 , 21
2014122505 , 05 , 13
2014122506 , 06 , 13
2014122507 , 07 , 16
2014122508 , 08 , 16
2014122509 , 09 , 19
2014122510 , 10 , 17
2014122511 , 11 , 11
2014122512 , 12 , 12
2014122513 , 13 , 10
2014122514 , 14 , 12
2014122515 , 15 , 7
2014122516 , 16 , 5
2014122517 , 17 , 8
2014122518 , 18 , 15
2014122519 , 19 , 13
2014122520 , 20 , 14
2014122521 , 21 , 7
2014122522 , 22 , 13
2014122523 , 23 , 9
2014122600 , 00 , 15
2014122601 , 01 , 12
2014122602 , 02 , 15
2014122603 , 03 , 12
2014122604 , 04 , 14
2014122605 , 05 , 16
2014122606 , 06 , 13
2014122607 , 07 , 20
2014122608 , 08 , 14
2014122609 , 09 , 16
2014122610 , 10 , 15
2014122611 , 11 , 25
2014122612 , 12 , 15
2014122613 , 13 , 7
2014122614 , 14 , 6
2014122615 , 15 , 7
2014122616 , 16 , 9
2014122617 , 17 , 9
2014122618 , 18 , 7
2014122619 , 19 , 11
2014122620 , 20 , 16
2014122621 , 21 , 11
2014122622 , 22 , 11
2014122623 , 23 , 23
2014122700 , 00 , 24
2014122701 , 01 , 17
2014122702 , 02 , 17
2014122703 , 03 , 15
2014122704 , 04 , 11
2014122705 , 05 , 14
2014122706 , 06 , 20
2014122707 , 07 , 19
2014122708 , 08 , 13
2014122709 , 09 , 14
2014122710 , 10 , 16
2014122711 , 11 , 11
2014122712 , 12 , 8
2014122713 , 13 , 14
2014122714 , 14 , 13
2014122715 , 15 , 18
2014122716 , 16 , 9
2014122717 , 17 , 8
2014122718 , 18 , 15
2014122719 , 19 , 11
2014122720 , 20 , 21
2014122721 , 21 , 18
2014122722 , 22 , 7
2014122723 , 23 , 20
2014122800 , 00 , 15
2014122801 , 01 , 27
2014122802 , 02 , 13
2014122803 , 03 , 15
2014122804 , 04 , 17
2014122805 , 05 , 19
2014122806 , 06 , 38
2014122807 , 07 , 29
2014122808 , 08 , 26
2014122809 , 09 , 20
2014122810 , 10 , 20
2014122811 , 11 , 24
2014122812 , 12 , 20
2014122813 , 13 , 19
2014122814 , 14 , 14
2014122815 , 15 , 12
2014122816 , 16 , 15
2014122817 , 17 , 20
2014122818 , 18 , 11
2014122819 , 19 , 16
2014122820 , 20 , 17
2014122821 , 21 , 11
2014122822 , 22 , 19
2014122823 , 23 , 17
2014122900 , 00 , 19
2014122901 , 01 , 27
2014122902 , 02 , 25
2014122903 , 03 , 15
2014122904 , 04 , 19
2014122905 , 05 , 13
2014122906 , 06 , 23
2014122907 , 07 , 25
2014122908 , 08 , 16
2014122909 , 09 , 16
2014122910 , 10 , 13
2014122911 , 11 , 18
2014122912 , 12 , 23
2014122913 , 13 , 26
2014122914 , 14 , 16
2014122915 , 15 , 20
2014122916 , 16 , 14
2014122917 , 17 , 8
2014122918 , 18 , 9
2014122919 , 19 , 15
2014122920 , 20 , 14
2014122921 , 21 , 18
2014122922 , 22 , 9
2014122923 , 23 , 13
2014123000 , 00 , 13
2014123001 , 01 , 20
2014123002 , 02 , 13
2014123003 , 03 , 19
2014123004 , 04 , 17
2014123005 , 05 , 25
2014123006 , 06 , 18
2014123007 , 07 , 20
2014123008 , 08 , 17
2014123009 , 09 , 27
2014123010 , 10 , 14
2014123011 , 11 , 16
2014123012 , 12 , 39
2014123013 , 13 , 17
2014123014 , 14 , 15
2014123015 , 15 , 19
2014123016 , 16 , 12
2014123017 , 17 , 15
2014123018 , 18 , 18
2014123019 , 19 , 20
2014123020 , 20 , 13
2014123021 , 21 , 16
2014123022 , 22 , 18
2014123023 , 23 , 17
2014123100 , 00 , 24
2014123101 , 01 , 21
2014123102 , 02 , 21
2014123103 , 03 , 16
2014123104 , 04 , 18
2014123105 , 05 , 24
2014123106 , 06 , 20
2014123107 , 07 , 23
2014123108 , 08 , 33
2014123109 , 09 , 29
2014123110 , 10 , 31
2014123111 , 11 , 18
2014123112 , 12 , 17
2014123113 , 13 , 18
2014123114 , 14 , 19
2014123115 , 15 , 16
2014123116 , 16 , 21
2014123118 , 18 , 21
2014123119 , 19 , 21
2014123120 , 20 , 21
2014123121 , 21 , 18
2014123122 , 22 , 19
2014123123 , 23 , 18
